Regional Weather Roundup
Issued by NWS

Home | Current Version | Previous Version | Text Only | Print | Product List | Glossary Off
Versions: 1 2 3 4 5 6 7 8 9 10 11 12 13 14 15 16 17 18 19 20 21 22 23 24 25 26 27 28 29 30 31 32 33 34 35 36 37 38 39 40 41 42 43 44 45 46 47 48 49 50

000
ASUS43 KIND 240359
RWRIN

WEATHER ROUNDUP FOR INDIANA
NATIONAL WEATHER SERVICE INDIANAPOLIS IN
1200 AM EDT TUE MAY 24 2016

NOTE: "FAIR" INDICATES FEW OR NO CLOUDS BELOW 12,000 FEET WITH NO
SIGNIFICANT WEATHER AND/OR OBSTRUCTIONS TO VISIBILITY.

* - STATION DOES NOT REPORT WEATHER SUCH AS PRECIPITATION OR FOG.

+ - STATION NOT QUALITY CONTROLLED BY THE NATIONAL WEATHER SERVICE.
    USE DATA WITH CAUTION...ESPECIALLY DEWPOINT AND RELATIVE
    HUMIDITY OBSERVATIONS.

INZ001>003-010>013-019-020-240500-
NORTHWEST INDIANA

CITY           SKY/WX    TMP DP  RH WIND       PRES   REMARKS
RENSSELAER +   CLEAR     63  36  36 SE7       29.97S

$$

LMZ046-743>745-240500-
SOUTHERN LAKE MICHIGAN

STATION/POSITION TIME  TEMP    WIND        PRES    WAVE
                       AIR SEA DIR/SP/G            HT
                 (UTC) (F)     (DEG/KT/KT) (MB)    (FT)
BURNS HARBOR     0300   73     150/  9/ 16 1014.6R
MICHIGAN CITY    0300   69     120/  8/  9   N/A
5NW MICH CITY    0300   64 58  150/  6/  8   N/A     0

$$

INZ004-005-014>016-021>024-240500-
NORTH CENTRAL INDIANA

CITY           SKY/WX    TMP DP  RH WIND       PRES   REMARKS
GOSHEN         CLEAR     57  36  45 SE6       29.99F
SOUTH BEND     CLEAR     64  35  34 SE7       29.98S

$$

INZ006>009-017-018-025>027-240500-
NORTHEAST INDIANA

CITY           SKY/WX    TMP DP  RH WIND       PRES   REMARKS
ANGOLA *+      CLEAR     52  43  71 CALM      30.01F
FORT WAYNE     PTCLDY    58  45  62 S3        30.02S

$$

INZ028-029-035-036-043>045-051>053-240500-
WEST CENTRAL INDIANA

CITY           SKY/WX    TMP DP  RH WIND       PRES   REMARKS
CRAWFORDSVL +  PTCLDY    57  45  65 SE8       30.00S
GREENCASTLE +  PTCLDY    55  50  82 CALM      30.02S
LAFAYETTE      CLEAR     59  43  55 CALM      29.98S
TERRE HAUTE    PTCLDY    57  51  80 CALM      29.99S

$$

INZ030>032-037>040-046>048-054>057-064-065-240500-
CENTRAL INDIANA

CITY           SKY/WX    TMP DP  RH WIND       PRES   REMARKS
INDIANAPOLIS   PTCLDY    67  39  35 S10       30.00S
-EAGLE CREEK   PTCLDY    58  47  66 CALM      30.01S
KOKOMO *+      CLEAR     55  41  58 S6        30.01S
SHELBYVILLE    CLEAR     58  47  66 SE5       30.02R

$$

INZ033-034-041-042-049-050-058-059-240500-
EAST CENTRAL INDIANA

CITY           SKY/WX    TMP DP  RH WIND       PRES   REMARKS
MUNCIE         CLEAR     64  44  48 S5        30.02F

$$

INZ060-061-067>069-081>083-085>088-240500-
SOUTHWEST INDIANA

CITY           SKY/WX    TMP DP  RH WIND       PRES   REMARKS
EVANSVILLE     CLEAR     65  50  58 CALM      30.00S
HUNTINGBURG *+ CLEAR     63  46  55 SE5       30.01S

$$

INZ062-063-066-070>080-084-089>092-240500-
SOUTH CENTRAL AND SOUTHEAST INDIANA

CITY           SKY/WX    TMP DP  RH WIND       PRES   REMARKS
BLOOMINGTON    CLEAR     56  48  74 CALM      30.02S
MADISON *+     CLEAR     59  52  77 CALM      30.06R
SEYMOUR +      CLEAR     61  52  72 CALM      30.03R

$$




USA.gov is the U.S. government's official web portal to all federal, state and local government web resources and services.